Location: Archemont
(49.1579°N, 1.7598°E)
Time: 09:42:22
(UTC+00:00)

ISS - Pass Details

Date: 03 March 2024
Orbit: 413 x 419 km, 51.6° (Epoch: 13 April)

Event Time Altitude Azimuth Distance (km) Brightness Sun altitude
Exits shadow 05:51:25 - 281° (WNW) 1,577 -1.5 -7.2°
Reaches altitude 10° 05:51:33 10° 281° (W) 1,522 -1.6 -7.2°
Maximum altitude 05:54:43 36° 213° (SSW) 696 -2.9 -6.7°
Drops below altitude 10° 05:57:52 10° 145° (SE) 1,511 -0.4 -6.1°
Sets 06:00:03 0° 137° (SE) 2,372 0.9 -5.8°
